Flag for Japan Weather past 2 weeks in Nagano, Japan

Now
29 °F

Chilly.


Feels Like: 29 °F
Forecast: 21 / 42 °F
Wind: 1 mph from Southwest

Location: Nagano

Current Time: Feb 28, 2015 at 7:52:18 AM

Latest Report: Feb 28, 2015 at 7:00 AM


Visibility: N/A

Pressure: 30.34 "Hg

Humidity: 80%

Dew point: 24 °F

Location of NaganoLocation

Historic Weather in Nagano — Graph

°F

Nagano temperature yesterday

Maximum temperature yesterday: 42 °F (at 1:00 PM)
Minimum temperature yesterday: 33 °F (at 11:00 PM)
Average temperature yesterday: 37 °F

Past Weeks' High & Low Weather Summary

 TemperatureHumidityPressure
High60 °F (Feb 22, 1:00 PM)96% (Feb 15, 6:00 AM)30.41 "Hg (Feb 15, 6:00 AM)
Low21 °F (Feb 16, 4:00 AM)41% (Feb 21, 1:00 PM)29.67 "Hg (Feb 13, 5:00 AM)
Average36 °F76%30.02 "Hg
* Reported Feb 13 5:00 AM — Feb 28 5:00 AM, Nagano, Weather by CustomWeather, © 2015

Note: Actual official high and low records may vary slightly from our data, if they occured in-between our weather recording intervals... More about our weather records

Advertising

Nagano weather history for previous 24 hours

 ConditionsComfort  
Time TempWeatherWind HumidityBarometerVisibility
5:00 AM
Sat, Feb 28
31 °FChilly.9 mph69%30.27 "HgN/A
4:00 AM31 °FChilly.10 mph71%30.26 "HgN/A
3:00 AM31 °FSnow flurries. Overcast.12 mph73%30.22 "Hg6 mi
2:00 AM31 °FChilly.8 mph75%30.19 "HgN/A
1:00 AM31 °FChilly.12 mph79%30.16 "HgN/A
12:00 AM32 °FChilly.7 mph75%30.14 "HgN/A
11:00 PM
Fri, Feb 27
33 °FChilly.3 mph63%30.12 "HgN/A
10:00 PM34 °FChilly.7 mph50%30.11 "HgN/A
9:00 PM34 °FPassing clouds.6 mph50%30.09 "Hg16 mi
8:00 PM35 °FChilly.9 mph50%30.08 "HgN/A
7:00 PM34 °FChilly.7 mph77%30.06 "HgN/A
6:00 PM34 °FChilly.8 mph72%30.02 "HgN/A
5:00 PM36 °FChilly.9 mph64%29.98 "HgN/A
4:00 PM38 °FChilly.7 mph55%29.94 "HgN/A
3:00 PM39 °FOvercast.12 mph58%29.91 "Hg12 mi
2:00 PM39 °FChilly.9 mph58%29.89 "HgN/A
1:00 PM42 °FQuite cool.7 mph42%29.88 "HgN/A
10:00 AM40 °FChilly.3 mph67%29.87 "HgN/A
9:00 AM37 °FOvercast.2 mph83%29.87 "Hg6 mi
8:00 AM35 °FChilly.3 mph90%29.86 "HgN/A
7:00 AM35 °FChilly.6 mph89%29.84 "HgN/A
Weather by CustomWeather, © 2015

See weather overviewHow to use our weather pages